• în Republica Moldova
  • Lista ţărilor
  • Pe 7 zile
  • Temperatura apei
  • Hartă satelitară
  • Meteo pe hartă
  • Widget-uri
  • user-avatar
    Intrare

    Meteo pe oră la Bregenz

    Astăzi, 24 Martie, Vineri

    Timp Temperatura Precipitaţii Vânt Presiune Umiditate
    00:00 +1°C° 0 mm 2 m/s 645 mmHg 92%
    01:00 +1°C° 0 mm 2 m/s 645 mmHg 93%
    02:00 +1°C° 0 mm 2 m/s 646 mmHg 93%
    03:00 +1°C° 0 mm 2 m/s 646 mmHg 93%
    04:00 +1°C° 0 mm 2 m/s 646 mmHg 93%
    05:00 +1°C° 0 mm 2 m/s 646 mmHg 93%
    06:00 +1°C° 0 mm 2 m/s 646 mmHg 92%
    07:00 +1°C° 0 mm 2 m/s 646 mmHg 92%
    08:00 +3°C° 0 mm 2 m/s 647 mmHg 89%
    09:00 +5°C° 0 mm 2 m/s 647 mmHg 86%
    10:00 +6°C° 0 mm 2 m/s 648 mmHg 83%
    11:00 +8°C° 0 mm 3 m/s 648 mmHg 81%
    12:00 +9°C° 0 mm 3 m/s 648 mmHg 78%
    13:00 +10°C° 0 mm 3 m/s 649 mmHg 76%
    14:00 +10°C° 0 mm 3 m/s 649 mmHg 77%
    15:00 +10°C° 0 mm 3 m/s 649 mmHg 78%
    16:00 +10°C° 0 mm 3 m/s 649 mmHg 78%
    17:00 +8°C° 0 mm 3 m/s 649 mmHg 83%
    18:00 +7°C° 0 mm 3 m/s 649 mmHg 88%
    19:00 +4°C° 0 mm 3 m/s 648 mmHg 93%
    20:00 +3°C° 0 mm 3 m/s 649 mmHg 93%
    21:00 +4°C° 0 mm 2 m/s 649 mmHg 93%
    22:00 +3°C° 0 mm 2 m/s 649 mmHg 93%
    23:00 +3°C° 0 mm 2 m/s 649 mmHg 92%

    Mâine, 25 Martie, Sâmbătă

    Timp Temperatura Precipitaţii Vânt Presiune Umiditate
    00:00 +3°C° 0 mm 2 m/s 649 mmHg 92%
    01:00 +2°C° 0 mm 2 m/s 649 mmHg 92%
    02:00 +2°C° 0 mm 2 m/s 649 mmHg 92%
    03:00 +2°C° 0 mm 2 m/s 648 mmHg 92%
    04:00 +2°C° 0 mm 2 m/s 648 mmHg 92%
    05:00 +1°C° 0 mm 3 m/s 648 mmHg 91%
    06:00 +1°C° 0 mm 3 m/s 648 mmHg 90%
    07:00 +1°C° 0 mm 3 m/s 648 mmHg 89%
    08:00 +3°C° 0 mm 3 m/s 648 mmHg 85%
    09:00 +5°C° 0 mm 3 m/s 649 mmHg 81%
    10:00 +8°C° 0 mm 3 m/s 649 mmHg 76%
    11:00 +9°C° 0 mm 3 m/s 649 mmHg 73%
    12:00 +10°C° 0 mm 4 m/s 649 mmHg 70%
    13:00 +11°C° 0 mm 4 m/s 648 mmHg 67%
    14:00 +11°C° 0 mm 4 m/s 648 mmHg 68%
    15:00 +10°C° 0 mm 4 m/s 648 mmHg 69%
    16:00 +10°C° 0 mm 4 m/s 647 mmHg 70%
    17:00 +7°C° 0 mm 4 m/s 647 mmHg 77%
    18:00 +5°C° 0 mm 3 m/s 646 mmHg 83%
    19:00 +3°C° 0 mm 3 m/s 645 mmHg 89%
    20:00 +3°C° 0 mm 3 m/s 645 mmHg 90%
    21:00 +3°C° 0 mm 2 m/s 645 mmHg 90%
    22:00 +2°C° 0 mm 2 m/s 645 mmHg 91%
    23:00 +1°C° 0 mm 2 m/s 645 mmHg 91%

    Poimâine, 26 Martie, Duminică

    Timp Temperatura Precipitaţii Vânt Presiune Umiditate
    00:00 +1°C° 0 mm 2 m/s 645 mmHg 91%
    01:00 -1°C° 0 mm 2 m/s 645 mmHg 92%
    02:00 +1°C° 0 mm 1 m/s 644 mmHg 92%
    03:00 +1°C° 0 mm 1 m/s 644 mmHg 93%
    04:00 0°C° 0 mm 1 m/s 644 mmHg 93%
    05:00 +1°C° 0 mm 1 m/s 645 mmHg 93%
    06:00 +1°C° 0 mm 1 m/s 645 mmHg 92%
    07:00 +1°C° 0 mm 1 m/s 645 mmHg 92%
    08:00 +3°C° 0 mm 1 m/s 645 mmHg 90%
    09:00 +4°C° 0 mm 1 m/s 646 mmHg 88%
    10:00 +5°C° 0 mm 1 m/s 646 mmHg 85%
    11:00 +5°C° 0 mm 1 m/s 646 mmHg 84%
    12:00 +6°C° 0 mm 1 m/s 646 mmHg 83%
    13:00 +6°C° 0 mm 1 m/s 646 mmHg 82%
    14:00 +6°C° 0,1 mm 1 m/s 646 mmHg 83%
    15:00 +6°C° 0,1 mm 1 m/s 646 mmHg 85%
    16:00 +6°C° 0,1 mm 1 m/s 646 mmHg 87%
    17:00 +5°C° 0 mm 1 m/s 646 mmHg 90%
    18:00 +4°C° 0 mm 1 m/s 646 mmHg 93%
    19:00 +3°C° 0 mm 1 m/s 646 mmHg 96%
    20:00 +2°C° 0 mm 1 m/s 646 mmHg 96%
    21:00 +2°C° 0 mm 1 m/s 647 mmHg 96%
    22:00 +2°C° 0 mm 1 m/s 647 mmHg 96%
    23:00 +1°C° 0 mm 1 m/s 647 mmHg 96%

    27 Martie, Luni

    Timp Temperatura Precipitaţii Vânt Presiune Umiditate
    00:00 +1°C° 0 mm 1 m/s 647 mmHg 96%
    01:00 0°C° 0 mm 1 m/s 646 mmHg 96%
    02:00 0°C° 0 mm 1 m/s 646 mmHg 95%
    03:00 -2°C° 0 mm 2 m/s 646 mmHg 94%
    04:00 -2°C° 0 mm 2 m/s 646 mmHg 93%
    05:00 -2°C° 0 mm 2 m/s 646 mmHg 91%
    06:00 -2°C° 0 mm 2 m/s 646 mmHg 89%
    07:00 -2°C° 0 mm 2 m/s 647 mmHg 88%
    08:00 +3°C° 0 mm 1 m/s 647 mmHg 80%
    09:00 +6°C° 0 mm 1 m/s 648 mmHg 73%
    10:00 +9°C° 0 mm 1 m/s 649 mmHg 66%
    11:00 +10°C° 0 mm 1 m/s 649 mmHg 63%
    12:00 +11°C° 0 mm 1 m/s 649 mmHg 61%
    13:00 +12°C° 0 mm 1 m/s 649 mmHg 58%
    14:00 +12°C° 0 mm 1 m/s 649 mmHg 61%
    15:00 +11°C° 0 mm 1 m/s 649 mmHg 63%
    16:00 +11°C° 0 mm 1 m/s 649 mmHg 66%
    17:00 +8°C° 0 mm 1 m/s 648 mmHg 75%
    18:00 +5°C° 0 mm 1 m/s 648 mmHg 85%
    19:00 +2°C° 0 mm 1 m/s 647 mmHg 94%
    20:00 +2°C° 0 mm 1 m/s 647 mmHg 94%
    21:00 +1°C° 0 mm 0 m/s 647 mmHg 95%
    22:00 0°C° 0 mm 0 m/s 648 mmHg 95%
    23:00 0°C° 0 mm 0 m/s 648 mmHg 95%

    28 Martie, Marţi

    Timp Temperatura Precipitaţii Vânt Presiune Umiditate
    00:00 0°C° 0 mm 0 m/s 648 mmHg 95%
    01:00 +1°C° 0 mm 1 m/s 648 mmHg 94%
    02:00 +1°C° 0 mm 1 m/s 648 mmHg 94%
    03:00 +1°C° 0 mm 1 m/s 648 mmHg 93%
    04:00 0°C° 0 mm 1 m/s 648 mmHg 93%
    05:00 +1°C° 0 mm 1 m/s 648 mmHg 92%
    06:00 +2°C° 0 mm 1 m/s 649 mmHg 90%
    07:00 +2°C° 0 mm 1 m/s 649 mmHg 89%
    08:00 +5°C° 0 mm 1 m/s 650 mmHg 80%
    09:00 +8°C° 0 mm 1 m/s 651 mmHg 70%
    10:00 +10°C° 0 mm 0 m/s 651 mmHg 60%
    11:00 +12°C° 0 mm 1 m/s 652 mmHg 59%
    12:00 +12°C° 0 mm 1 m/s 652 mmHg 57%
    13:00 +13°C° 0 mm 1 m/s 652 mmHg 55%
    14:00 +13°C° 0,1 mm 1 m/s 652 mmHg 58%
    15:00 +12°C° 0,1 mm 1 m/s 651 mmHg 62%
    16:00 +12°C° 0,1 mm 1 m/s 651 mmHg 65%
    17:00 +9°C° 0,2 mm 1 m/s 651 mmHg 74%
    18:00 +6°C° 0,2 mm 1 m/s 650 mmHg 84%
    19:00 +4°C° 0,2 mm 1 m/s 649 mmHg 93%
    20:00 +3°C° 0 mm 1 m/s 650 mmHg 93%
    21:00 +3°C° 0 mm 1 m/s 650 mmHg 94%
    22:00 +3°C° 0 mm 1 m/s 650 mmHg 94%
    23:00 +3°C° 0 mm 1 m/s 651 mmHg 95%

    29 Martie, Miercuri

    Timp Temperatura Precipitaţii Vânt Presiune Umiditate
    00:00 +3°C° 0 mm 1 m/s 651 mmHg 95%
    01:00 +3°C° 0 mm 1 m/s 651 mmHg 95%
    02:00 +2°C° 0 mm 1 m/s 651 mmHg 95%
    03:00 +2°C° 0 mm 1 m/s 651 mmHg 95%
    04:00 +2°C° 0 mm 1 m/s 651 mmHg 95%
    05:00 +2°C° 0 mm 1 m/s 651 mmHg 95%
    06:00 +3°C° 0 mm 1 m/s 652 mmHg 94%
    07:00 +3°C° 0 mm 1 m/s 652 mmHg 94%
    08:00 +6°C° 0 mm 1 m/s 652 mmHg 85%
    09:00 +7°C° 0 mm 0 m/s 653 mmHg 76%
    10:00 +10°C° 0 mm 0 m/s 654 mmHg 67%
    11:00 +12°C° 0 mm 1 m/s 654 mmHg 63%
    12:00 +13°C° 0 mm 1 m/s 654 mmHg 58%
    13:00 +14°C° 0 mm 1 m/s 654 mmHg 54%
    14:00 +13°C° 0 mm 1 m/s 653 mmHg 56%
    15:00 +13°C° 0 mm 1 m/s 653 mmHg 58%
    16:00 +13°C° 0 mm 1 m/s 653 mmHg 60%
    17:00 +10°C° 0 mm 1 m/s 652 mmHg 70%
    18:00 +7°C° 0 mm 1 m/s 651 mmHg 81%
    19:00 +2°C° 0 mm 0 m/s 650 mmHg 91%
    20:00 +2°C° 0 mm 0 m/s 650 mmHg 92%
    21:00 +3°C° 0 mm 1 m/s 650 mmHg 92%
    22:00 +3°C° 0 mm 1 m/s 650 mmHg 92%
    23:00 +3°C° 0 mm 1 m/s 650 mmHg 91%
    Arată mai mult